Location: Helds Island Access
(38.5526°N, 91.5997°W)
Time: 12:52:37
(UTC-05:00)

Daily predictions for brighter satellites

Satellite Brightness Start Highest point End
(mag) Time Altitude Azimuth Time Altitude Azimuth Time Altitude Azimuth
DNEPR-1 R/B 4.2 20:07:58 10° SSW 20:14:15 79° ESE 20:19:24 10° NE
Meteor 2-10 4.4 20:09:02 10° S 20:14:44 82° W 20:20:21 10° N
ATLAS 5 CENTAUR R/B 4.5 20:16:21 10° NNE 20:18:24 12° NNE 20:20:30 10° NE
GPS 2-04 Rocket1 4.0 20:17:23 10° WSW 20:20:25 26° SSW 20:23:34 10° SE
OAO 3 Rocket 3.8 20:19:38 10° SW 20:24:14 42° SSE 20:28:53 10° E
USA 234 3.8 20:20:43 10° ESE 20:26:57 48° NE 20:33:12 10° NW
Cosmos 1331 Rocket 4.2 20:21:57 10° SSW 20:27:15 82° WNW 20:32:36 10° NNE
Atlas Centaur 2 4.0 20:23:11 10° SSW 20:28:21 22° SSE 20:34:08 10° ESE
Resurs 01 Rocket 1.6 20:24:47 10° SSE 20:29:14 81° ENE 20:33:42 10° N
Helios 1A 3.7 20:27:36 10° SE 20:31:26 35° ENE 20:35:18 10° N
GRACE-1 4.1 20:32:18 10° NNE 20:34:58 45° E 20:37:36 10° SSE
GRACE-2 4.1 20:32:43 10° NNE 20:35:23 45° E 20:38:01 10° SSE
Molniya-1 2.7 20:34:04 10° SSW 20:35:35 35° ESE 20:37:24 10° NE
Cosmos 2360 4.2 20:29:57 10° SSW 20:35:38 71° ESE 20:41:21 10° NNE
SAR-Lupe-4 4.4 20:32:56 10° SE 20:36:10 33° ENE 20:39:26 10° N
FALCON 9 R/B 1.4 20:34:17 10° WSW 20:36:45 27° S 20:38:04 15° ESE
ERS-1 Rocket 4.4 20:42:11 13° ESE 20:45:12 21° ENE 20:48:57 10° NNE
Cosmos 1408 3.7 20:45:06 10° NNE 20:48:16 26° ENE 20:50:06 18° ESE
Cosmos 1486 Rocket 4.0 20:43:35 10° NNW 20:48:48 68° ENE 20:53:58 10° SSE
ERBS 3.7 20:47:41 10° NNW 20:50:45 28° NE 20:52:43 17° E
Cosmos 1455 2.4 20:47:37 10° SSW 20:51:25 71° W 20:55:12 10° N
SAR-Lupe-1 4.4 20:50:59 15° SE 20:53:40 46° ENE 20:57:08 10° N
Cosmos 1869 3.2 20:51:30 10° S 20:55:23 63° E 20:59:18 10° NNE
CENTAUR R/B 4.1 20:53:15 10° WSW 20:58:54 38° NW 21:05:15 10° NNE
Gblst 52 Del rocket 4.5 20:55:50 10° WNW 21:01:36 63° SW 21:05:47 17° SSE
OTV 4 2.3 20:59:58 10° WSW 21:02:09 19° SSW 21:03:10 16° S
SeaSat 1 4.2 21:00:11 13° E 21:02:35 18° NE 21:05:53 10° N
CZ-3B DEB 2.7 20:59:39 10° WNW 21:03:04 24° WSW 21:04:59 12° S
Cosmos 1400 Rocket 4.3 21:00:06 10° NNW 21:03:42 36° W 21:07:18 10° SSW
Cosmos 2026 Rocket 4.1 20:58:24 10° N 21:04:34 58° E 21:09:53 14° SSE
CZ-4B DEB 4.5 21:05:40 15° SSE 21:08:34 88° W 21:12:09 10° NNW
Cosmos 1892 4.5 21:06:16 10° NNW 21:09:41 32° W 21:13:06 10° SSW
USA 186 3.1 21:11:14 10° SSW 21:13:37 31° W 21:16:10 10° NNW
DELTA 2 R/B (1) 4.0 21:10:18 10° W 21:15:43 50° SSW 21:18:45 25° SE
Cosmos 1933 3.9 21:14:41 30° SE 21:15:55 37° E 21:19:40 10° NNE
Cosmos 1315 Rocket 3.6 21:12:12 10° NNW 21:16:11 53° W 21:20:05 10° S
Cosmos 1503 Rocket 4.0 21:14:43 10° NNW 21:19:58 66° ENE 21:22:48 27° SE
Cosmos 1634 Rocket 4.2 21:14:31 10° SSW 21:20:48 73° W 21:27:08 10° N
YAOGAN 6 3.0 21:20:14 37° ESE 21:21:03 44° ENE 21:24:33 10° N
Abrixas rocket 4.1 21:18:56 10° W 21:21:52 29° NNW 21:24:49 10° NE
Cosmos 2263 Rocket 2.8 21:17:01 10° N 21:22:12 38° ENE 21:24:22 27° ESE
Cosmos 1354 Rocket 4.0 21:18:01 10° NNW 21:23:19 72° ENE 21:26:09 27° SSE
Cosmos 2322 Rocket 2.1 21:18:25 10° SSW 21:24:00 80° ESE 21:29:39 10° NNE
H-2A R/B 3.7 21:24:03 15° ENE 21:24:41 16° ENE 21:27:33 10° NNE
Cosmos 1655 Rocket 4.0 21:20:00 10° N 21:26:24 71° E 21:30:51 21° SSE
Cosmos 1733 Rocket 3.0 21:28:21 10° N 21:32:48 71° E 21:34:27 38° SSE
Meteor 2-10 Rocket 4.1 21:30:49 29° SE 21:33:12 44° E 21:38:41 10° NNE
Meteor 1-29 4.2 21:31:28 10° N 21:34:47 42° WNW 21:38:04 10° SW
Cosmos 2360 Rocket 2.7 21:34:16 34° SE 21:35:10 36° ESE 21:40:18 10° NE
Helios 1B rocket 3.8 21:31:28 10° N 21:35:19 40° WNW 21:39:09 10° SW
Cosmos 1980 Rocket 4.2 21:31:16 10° WSW 21:36:11 30° WNW 21:41:10 10° N
Cosmos 1862 Rocket 3.4 21:34:03 24° S 21:36:39 78° E 21:41:09 10° N
Intercosmos 25 Rocket 3.7 21:36:12 15° SSW 21:38:35 51° W 21:42:08 10° N
Lacrosse 4 Rocket 1.4 21:34:16 10° NNW 21:38:36 75° ENE 21:39:40 50° SE
Cosmos 2322 4.3 21:40:41 35° ESE 21:40:41 35° ESE 21:45:42 10° NE
Cosmos 1825 2.6 21:38:04 10° NNW 21:41:49 58° W 21:43:20 32° SSW
Cosmos 1862 3.2 21:39:08 10° N 21:43:10 89° W 21:44:08 51° S
GENESIS II 4.1 21:39:23 10° SSW 21:43:26 86° ESE 21:47:30 10° NNE
NOAA 11 4.4 21:42:48 39° SE 21:44:30 55° ENE 21:49:52 10° N
Cosmos 968 Rocket 4.3 21:41:03 10° N 21:45:44 33° ENE 21:46:23 32° E
Envisat 3.9 21:42:59 13° S 21:47:13 45° W 21:52:05 10° NNW
Cosmos 1939 Rocket 3.9 21:45:37 22° SSW 21:47:51 44° W 21:51:43 10° NNW
YAOGAN 11 4.2 21:50:13 53° E 21:50:30 54° ENE 21:54:46 10° N
SL-16 R/B 2.6 21:45:26 10° SSW 21:51:02 63° WNW 21:56:40 10° NNE
Cosmos 2266 Rocket 4.3 21:46:19 10° N 21:52:20 47° E 21:53:45 41° ESE
Centaur AC-42 4.4 21:41:33 10° WSW 21:54:25 22° SSW 21:57:13 18° S
SPOT 5 3.1 21:54:50 49° E 21:55:16 51° ENE 21:59:52 10° N
Cosmos 1703 Rocket 4.2 21:57:22 40° ENE 21:57:22 40° ENE 22:00:44 10° NNE
MetOp-B 4.0 22:03:13 56° SSE 22:04:23 81° ENE 22:09:45 10° N
ATLAS 5 CENTAUR R/B 2.8 21:58:38 10° NNW 22:04:29 49° NE 22:05:54 42° E
BREEZE-M DEB (TANK) 4.4 21:43:48 10° NW 22:05:22 82° SW 22:07:32 46° SE
Nimbus 7 Rocket 4.4 22:01:32 10° NNE 22:07:24 59° ESE 22:08:11 54° SE
OAO 3 Rocket 3.4 22:02:40 10° W 22:07:08 56° SSW 22:07:08 56° SSW
Meteor 1-26 Rocket 4.1 22:06:23 50° S 22:07:54 77° E 22:13:41 10° NNE
SEDSat Delta rocket 4.3 22:03:59 10° WSW 22:08:32 39° S 22:08:32 39° S
USA 234 3.8 22:07:21 34° S 22:09:53 49° SW 22:16:14 10° NW
SPOT 1/Viking Rocket 3.8 22:11:28 52° ENE 22:11:32 52° ENE 22:16:36 10° N
ARGOS 3.0 22:11:51 66° ESE 22:12:26 73° ENE 22:17:48 10° N
Cosmos 489 Rocket 4.4 22:09:01 10° NNW 22:15:24 76° ENE 22:16:36 59° SE
Atlas Centaur 2 3.4 22:10:01 10° SW 22:16:54 41° S 22:16:54 41° S
ERS-1 Rocket 3.9 22:22:11 33° SW 22:23:40 42° W 22:28:26 10° NNW
Cosmos 1844 Rocket 3.9 22:21:11 10° N 22:25:44 28° NE 22:25:44 28° NE
MOS 1-B Rocket 3.8 22:26:13 66° SSE 22:27:08 87° ENE 22:32:51 10° NNW
Sich 1 Rocket 4.1 22:27:23 10° NNW 22:31:27 57° WNW 22:31:27 57° WNW
SeaSat 1 2.7 22:39:59 62° W 22:39:59 62° W 22:44:33 10° NNW
Cosmos 2219 Rocket 4.2 22:45:20 16° NE 22:45:20 16° NE 22:46:34 10° NE
Meteor 1-14 Rocket 4.2 22:36:21 10° NNW 22:41:59 74° W 22:42:11 73° WSW
H-2A R/B 3.6 22:44:20 29° NNE 22:44:20 29° NNE 22:46:39 10° N
Milstar 3 4.1 22:47:20 10° WSW 22:50:57 23° SW 22:50:57 23° SW
USA 229 DEB 3.7 22:51:55 40° SW 22:54:35 79° WNW 23:01:33 10° NNE
Cosmos 2237 4.4 22:55:26 66° N 22:55:26 66° N 23:00:24 10° NNE
USA 229 3.7 22:52:13 43° SW 22:54:41 80° NW 23:01:39 10° NNE
COSMOS 2428 3.4 23:05:01 47° NNE 23:05:01 47° NNE 23:08:59 10° NNE
H-2A R/B 2.8 23:04:41 48° NW 23:04:41 48° NW 23:08:32 10° NNW
Terra 3.1 23:05:46 38° N 23:05:46 38° N 23:08:41 10° N
Cosmos 1867 4.2 22:59:03 10° NW 23:03:20 53° WNW 23:03:20 53° WNW
Cosmos 2263 Rocket 3.6 23:01:17 10° NW 23:05:54 27° WSW 23:06:05 27° WSW
Cosmos 2360 Rocket 3.8 23:15:51 17° WSW 23:19:10 30° WNW 23:24:08 10° N
Cosmos 2333 Rocket 3.7 23:46:51 31° NNE 23:46:51 31° NNE 23:49:42 10° NNE
CZ-4C R/B 3.5 23:38:10 10° NNW 23:44:55 46° NE 23:44:55 46° NE
ATLAS 5 CENTAUR R/B 3.9 23:43:43 10° NW 23:47:28 27° W 23:47:28 27° W
Cosmos 2237 Rocket 3.9 23:56:36 26° NNE 23:56:36 26° NNE 23:58:56 10° NNE
